Home   Weather   Monza   Past weeks

Flag for Italy Past Weather in Monza, Italy — Yesterday and Last 2 Weeks

Now
43 °F

Fog.


Feels Like: 43 °F
Forecast: 33 / 47 °F
Wind: 1 mph from North

Location: Milan / Linate

Current Time: Dec 5, 2016 at 5:53:20 pm

Latest Report: Dec 5, 2016 at 4:50 pm


Visibility: 0 mi

Pressure: 30.36 "Hg

Humidity: 100%

Dew Point: 43 °F

Location of MonzaLocation

Past Weather in Monza — Graph

°F

Monza Temperature Yesterday

Maximum temperature yesterday: 48 °F (at 12:20 pm)
Minimum temperature yesterday: 45 °F (at 12:20 am)
Average temperature yesterday: 46 °F

High & Low Weather Summary for the Past Weeks

 TemperatureHumidityPressure
High59 °F (Nov 23, 12:20 pm)100% (Nov 20, 4:50 pm)30.54 "Hg (Nov 20, 4:50 pm)
Low30 °F (Nov 30, 5:50 am)39% (Nov 29, 1:20 pm)29.86 "Hg (Nov 27, 2:20 pm)
Average48 °F87%30.13 "Hg
* Reported Nov 20 4:20 pm — Dec 5 4:50 pm, Monza, Weather by CustomWeather, © 2016

Note: Actual official high and low records may vary slightly from our data, if they occured in-between our weather recording intervals... More about our weather records

Advertising

Monza Weather History for the Previous 24 Hours

Scroll right to see more
 ConditionsComfort  
Time TempWeatherWind HumidityBarometerVisibility
4:50 pm
Mon, Dec 5
43 °FFog.1 mph100%30.36 "Hg0 mi
4:20 pm43 °FFog.2 mph100%30.36 "Hg0 mi
3:50 pm43 °FFog.2 mph100%30.33 "Hg1 mi
3:20 pm43 °FFog.3 mph100%30.36 "Hg0 mi
2:50 pm43 °FFog.6 mph100%30.36 "Hg0 mi
2:20 pm45 °FFog.5 mph100%30.36 "Hg1 mi
1:50 pm45 °FFog.5 mph100%30.36 "Hg1 mi
1:20 pm45 °FFog.3 mph100%30.36 "Hg1 mi
12:50 pm45 °FFog.5 mph100%30.36 "Hg1 mi
12:20 pm45 °FFog.2 mph100%30.39 "Hg1 mi
11:50 am45 °FFog.2 mph100%30.39 "Hg1 mi
11:20 am45 °FFog.No wind100%30.39 "Hg0 mi
10:50 am43 °FFog.1 mph100%30.42 "Hg0 mi
10:20 am43 °FFog.3 mph100%30.42 "Hg0 mi
9:50 am43 °FFog.5 mph100%30.42 "Hg1 mi
9:20 am43 °FFog.3 mph100%30.39 "Hg1 mi
8:50 am43 °FFog.5 mph100%30.39 "Hg1 mi
8:20 am41 °FFog.5 mph100%30.39 "Hg0 mi
7:50 am41 °FFog.2 mph100%30.39 "Hg0 mi
7:20 am41 °FFog.3 mph100%30.39 "Hg0 mi
6:50 am41 °FFog.5 mph100%30.36 "Hg0 mi
6:20 am41 °FFog.No wind100%30.36 "Hg0 mi
5:50 am41 °FPassing clouds.3 mph100%30.36 "Hg1 mi
5:20 am41 °FPassing clouds.3 mph100%30.36 "Hg1 mi
4:50 am43 °FPassing clouds.5 mph100%30.36 "Hg1 mi
4:20 am43 °FFog.5 mph100%30.36 "Hg2 mi
3:50 am43 °FFog.2 mph100%30.36 "Hg2 mi
3:20 am45 °FFog.2 mph93%30.36 "Hg2 mi
2:50 am45 °FFog.2 mph93%30.36 "Hg2 mi
2:20 am45 °FFog.No wind93%30.36 "Hg2 mi
1:50 am45 °FFog.No wind93%30.36 "Hg2 mi
1:20 am45 °FFog.2 mph93%30.36 "Hg2 mi
12:50 am45 °FFog.2 mph93%30.36 "Hg2 mi
12:20 am45 °FFog.5 mph93%30.36 "Hg2 mi
11:50 pm
Sun, Dec 4
45 °FFog.5 mph93%30.36 "Hg2 mi
11:20 pm45 °FFog.2 mph93%30.36 "Hg2 mi
10:50 pm46 °FFog.5 mph87%30.36 "Hg3 mi
10:20 pm45 °FFog.2 mph93%30.36 "Hg3 mi
9:50 pm46 °FFog.2 mph87%30.36 "Hg3 mi
9:20 pm46 °FFog.2 mph87%30.33 "Hg3 mi
8:50 pm46 °FFog.2 mph87%30.33 "Hg3 mi
8:20 pm46 °FFog.2 mph87%30.33 "Hg3 mi
7:50 pm46 °FFog.5 mph87%30.33 "Hg3 mi
7:20 pm46 °FFog.2 mph87%30.33 "Hg3 mi
6:50 pm46 °FFog.2 mph87%30.33 "Hg3 mi
6:20 pm46 °FFog.6 mph87%30.30 "Hg3 mi
5:50 pm46 °FFog.6 mph87%30.30 "Hg2 mi
5:20 pm46 °FFog.5 mph87%30.30 "Hg2 mi
Weather by CustomWeather, © 2016

See weather overviewHow to use our weather pages